COMSATBW-1

Last updated on Tue Sep 22 2026 00:03:11 GMT+0000 (Coordinated Universal Time)

1 35943U 09054B 26264.57287772 .00000021 00000+0 00000+0 0 9998 2 35943 0.0260 150.8629 0003093 37.0309 81.7979 1.00272436 62275
UTC large
Height (km)
Speed (km/s)
/
Latitude / Longitude
Inclination (degrees)
Orbital Period (minutes)
Azimuth
Elevation
Range (km)
Doppler Factor

Next 0 passes for location: London (51.5072 / 0.1276)

No passes found over London.
COMSATBW-1